Year,Month,Day,Hour,Minute,Value (Times are PST for temperature in C)
2021,04,17,00,00,10.80
2021,04,17,00,01,10.80
2021,04,17,00,02,10.90
2021,04,17,00,03,10.90
2021,04,17,00,04,10.90
2021,04,17,00,05,10.90
2021,04,17,00,06,10.90
2021,04,17,00,07,10.90
2021,04,17,00,08,10.90
2021,04,17,00,09,10.90
2021,04,17,00,10,10.80
2021,04,17,00,11,10.80
2021,04,17,00,12,10.80
2021,04,17,00,13,10.80
2021,04,17,00,14,10.80
2021,04,17,00,15,10.70
2021,04,17,00,16,10.70
2021,04,17,00,17,10.70
2021,04,17,00,18,10.60
2021,04,17,00,19,10.60
2021,04,17,00,20,10.50
2021,04,17,00,21,10.50
2021,04,17,00,22,10.40
2021,04,17,00,23,10.40
2021,04,17,00,24,10.40
2021,04,17,00,25,10.40
2021,04,17,00,26,10.30
2021,04,17,00,27,10.30
2021,04,17,00,28,10.30
2021,04,17,00,29,10.30
2021,04,17,00,30,10.30
2021,04,17,00,31,10.30
2021,04,17,00,32,10.30
2021,04,17,00,33,10.20
2021,04,17,00,34,10.20
2021,04,17,00,35,10.20
2021,04,17,00,36,10.20
2021,04,17,00,37,10.10
2021,04,17,00,38,10.10
2021,04,17,00,39,10.10
2021,04,17,00,40,10.10
2021,04,17,00,41,10.10
2021,04,17,00,42,10.10
2021,04,17,00,43,10.10
2021,04,17,00,44,10.00
2021,04,17,00,45,10.00
2021,04,17,00,46,9.90
2021,04,17,00,47,9.90
2021,04,17,00,48,9.90
2021,04,17,00,49,9.80
2021,04,17,00,50,9.80
2021,04,17,00,51,9.80
2021,04,17,00,52,9.80
2021,04,17,00,53,9.70
2021,04,17,00,54,9.70
2021,04,17,00,55,9.70
2021,04,17,00,56,9.70
2021,04,17,00,57,9.70
2021,04,17,00,58,9.60
2021,04,17,00,59,9.60
2021,04,17,01,00,9.60
2021,04,17,01,01,9.60
2021,04,17,01,02,9.60
2021,04,17,01,03,9.60
2021,04,17,01,04,9.50
2021,04,17,01,05,9.50
2021,04,17,01,06,9.50
2021,04,17,01,07,9.60
2021,04,17,01,08,9.60
2021,04,17,01,09,9.60
2021,04,17,01,10,9.60
2021,04,17,01,11,9.60
2021,04,17,01,12,9.60
2021,04,17,01,13,9.60
2021,04,17,01,14,9.50
2021,04,17,01,15,9.50
2021,04,17,01,16,9.50
2021,04,17,01,17,9.50
2021,04,17,01,18,9.50
2021,04,17,01,19,9.40
2021,04,17,01,20,9.40
2021,04,17,01,21,9.40
2021,04,17,01,22,9.40
2021,04,17,01,23,9.40
2021,04,17,01,24,9.40
2021,04,17,01,25,9.30
2021,04,17,01,26,9.30
2021,04,17,01,27,9.30
2021,04,17,01,28,9.30
2021,04,17,01,29,9.30
2021,04,17,01,30,9.30
2021,04,17,01,31,9.30
2021,04,17,01,32,9.30
2021,04,17,01,33,9.30
2021,04,17,01,34,9.30
2021,04,17,01,35,9.20
2021,04,17,01,36,9.20
2021,04,17,01,37,9.20
2021,04,17,01,38,9.20
2021,04,17,01,39,9.20
2021,04,17,01,40,9.20
2021,04,17,01,41,9.20
2021,04,17,01,42,9.20
2021,04,17,01,43,9.20
2021,04,17,01,44,9.20
2021,04,17,01,45,9.20
2021,04,17,01,46,9.20
2021,04,17,01,47,9.20
2021,04,17,01,48,9.10
2021,04,17,01,49,9.10
2021,04,17,01,50,9.10
2021,04,17,01,51,9.10
2021,04,17,01,52,9.10
2021,04,17,01,53,9.00
2021,04,17,01,54,9.00
2021,04,17,01,55,9.00
2021,04,17,01,56,8.90
2021,04,17,01,57,8.90
2021,04,17,01,58,8.90
2021,04,17,01,59,8.80
2021,04,17,02,00,8.80
2021,04,17,02,01,8.80
2021,04,17,02,02,8.80
2021,04,17,02,03,8.80
2021,04,17,02,04,8.80
2021,04,17,02,05,8.80
2021,04,17,02,06,8.80
2021,04,17,02,07,8.70
2021,04,17,02,08,8.70
2021,04,17,02,09,8.70
2021,04,17,02,10,8.60
2021,04,17,02,11,8.60
2021,04,17,02,12,8.60
2021,04,17,02,13,8.50
2021,04,17,02,14,8.50
2021,04,17,02,15,8.50
2021,04,17,02,16,8.40
2021,04,17,02,17,8.40
2021,04,17,02,18,8.40
2021,04,17,02,19,8.40
2021,04,17,02,20,8.40
2021,04,17,02,21,8.40
2021,04,17,02,22,8.40
2021,04,17,02,23,8.40
2021,04,17,02,24,8.40
2021,04,17,02,25,8.40
2021,04,17,02,26,8.30
2021,04,17,02,27,8.30
2021,04,17,02,28,8.30
2021,04,17,02,29,8.30
2021,04,17,02,30,8.30
2021,04,17,02,31,8.20
2021,04,17,02,32,8.20
2021,04,17,02,33,8.20
2021,04,17,02,34,8.20
2021,04,17,02,35,8.20
2021,04,17,02,36,8.20
2021,04,17,02,37,8.10
2021,04,17,02,38,8.10
2021,04,17,02,39,8.10
2021,04,17,02,40,8.10
2021,04,17,02,41,8.10
2021,04,17,02,42,8.10
2021,04,17,02,43,8.10
2021,04,17,02,44,8.00
2021,04,17,02,45,8.00
2021,04,17,02,46,8.00
2021,04,17,02,47,8.00
2021,04,17,02,48,8.00
2021,04,17,02,49,7.90
2021,04,17,02,50,7.90
2021,04,17,02,51,7.90
2021,04,17,02,52,7.90
2021,04,17,02,53,7.90
2021,04,17,02,54,7.80
2021,04,17,02,55,7.80
2021,04,17,02,56,7.80
2021,04,17,02,57,7.80
2021,04,17,02,58,7.70
2021,04,17,02,59,7.70
2021,04,17,03,00,7.70
2021,04,17,03,01,7.60
2021,04,17,03,02,7.60
2021,04,17,03,03,7.60
2021,04,17,03,04,7.50
2021,04,17,03,05,7.50
2021,04,17,03,06,7.50
2021,04,17,03,07,7.50
2021,04,17,03,08,7.50
2021,04,17,03,09,7.50
2021,04,17,03,10,7.40
2021,04,17,03,11,7.40
2021,04,17,03,12,7.40
2021,04,17,03,13,7.40
2021,04,17,03,14,7.30
2021,04,17,03,15,7.30
2021,04,17,03,16,7.30
2021,04,17,03,17,7.30
2021,04,17,03,18,7.30
2021,04,17,03,19,7.30
2021,04,17,03,20,7.30
2021,04,17,03,21,7.30
2021,04,17,03,22,7.30
2021,04,17,03,23,7.30
2021,04,17,03,24,7.30
2021,04,17,03,25,7.30
2021,04,17,03,26,7.30
2021,04,17,03,27,7.30
2021,04,17,03,28,7.30
2021,04,17,03,29,7.30
2021,04,17,03,30,7.20
2021,04,17,03,31,7.20
2021,04,17,03,32,7.20
2021,04,17,03,33,7.20
2021,04,17,03,34,7.20
2021,04,17,03,35,7.20
2021,04,17,03,36,7.20
2021,04,17,03,37,7.20
2021,04,17,03,38,7.20
2021,04,17,03,39,7.20
2021,04,17,03,40,7.20
2021,04,17,03,41,7.20
2021,04,17,03,42,7.10
2021,04,17,03,43,7.10
2021,04,17,03,44,7.10
2021,04,17,03,45,7.10
2021,04,17,03,46,7.10
2021,04,17,03,47,7.00
2021,04,17,03,48,7.00
2021,04,17,03,49,6.90
2021,04,17,03,50,6.90
2021,04,17,03,51,6.90
2021,04,17,03,52,6.90
2021,04,17,03,53,6.90
2021,04,17,03,54,6.80
2021,04,17,03,55,6.80
2021,04,17,03,56,6.80
2021,04,17,03,57,6.80
2021,04,17,03,58,6.80
2021,04,17,03,59,6.80
2021,04,17,04,00,6.90
2021,04,17,04,01,6.90
2021,04,17,04,02,6.90
2021,04,17,04,03,6.90
2021,04,17,04,04,6.90
2021,04,17,04,05,6.90
2021,04,17,04,06,6.90
2021,04,17,04,07,6.90
2021,04,17,04,08,6.90
2021,04,17,04,09,6.90
2021,04,17,04,10,6.90
2021,04,17,04,11,6.90
2021,04,17,04,12,6.90
2021,04,17,04,13,6.90
2021,04,17,04,14,6.90
2021,04,17,04,15,6.90
2021,04,17,04,16,6.90
2021,04,17,04,17,6.90
2021,04,17,04,18,6.90
2021,04,17,04,19,6.90
2021,04,17,04,20,6.90
2021,04,17,04,21,6.90
2021,04,17,04,22,6.90
2021,04,17,04,23,6.90
2021,04,17,04,24,6.90
2021,04,17,04,25,6.90
2021,04,17,04,26,6.90
2021,04,17,04,27,6.90
2021,04,17,04,28,6.80
2021,04,17,04,29,6.80
2021,04,17,04,30,6.80
2021,04,17,04,31,6.80
2021,04,17,04,32,6.80
2021,04,17,04,33,6.70
2021,04,17,04,34,6.70
2021,04,17,04,35,6.70
2021,04,17,04,36,6.70
2021,04,17,04,37,6.70
2021,04,17,04,38,6.70
2021,04,17,04,39,6.70
2021,04,17,04,40,6.70
2021,04,17,04,41,6.70
2021,04,17,04,42,6.70
2021,04,17,04,43,6.70
2021,04,17,04,44,6.70
2021,04,17,04,45,6.70
2021,04,17,04,46,6.70
2021,04,17,04,47,6.70
2021,04,17,04,48,6.70
2021,04,17,04,49,6.70
2021,04,17,04,50,6.70
2021,04,17,04,51,6.70
2021,04,17,04,52,6.70
2021,04,17,04,53,6.70
2021,04,17,04,54,6.70
2021,04,17,04,55,6.60
2021,04,17,04,56,6.60
2021,04,17,04,57,6.60
2021,04,17,04,58,6.60
2021,04,17,04,59,6.60
2021,04,17,05,00,6.60
2021,04,17,05,01,6.50
2021,04,17,05,02,6.50
2021,04,17,05,03,6.50
2021,04,17,05,04,6.40
2021,04,17,05,05,6.40
2021,04,17,05,06,6.40
2021,04,17,05,07,6.30
2021,04,17,05,08,6.30
2021,04,17,05,09,6.30
2021,04,17,05,10,6.30
2021,04,17,05,11,6.20
2021,04,17,05,12,6.20
2021,04,17,05,13,6.20
2021,04,17,05,14,6.20
2021,04,17,05,15,6.20
2021,04,17,05,16,6.20
2021,04,17,05,17,6.30
2021,04,17,05,18,6.30
2021,04,17,05,19,6.30
2021,04,17,05,20,6.30
2021,04,17,05,21,6.30
2021,04,17,05,22,6.30
2021,04,17,05,23,6.30
2021,04,17,05,24,6.30
2021,04,17,05,25,6.30
2021,04,17,05,26,6.30
2021,04,17,05,27,6.30
2021,04,17,05,28,6.30
2021,04,17,05,29,6.30
2021,04,17,05,30,6.30
2021,04,17,05,31,6.30
2021,04,17,05,32,6.30
2021,04,17,05,33,6.30
2021,04,17,05,34,6.20
2021,04,17,05,35,6.20
2021,04,17,05,36,6.20
2021,04,17,05,37,6.20
2021,04,17,05,38,6.10
2021,04,17,05,39,6.10
2021,04,17,05,40,6.10
2021,04,17,05,41,6.10
2021,04,17,05,42,6.00
2021,04,17,05,43,6.00
2021,04,17,05,44,5.90
2021,04,17,05,45,5.90
2021,04,17,05,46,5.90
2021,04,17,05,47,5.90
2021,04,17,05,48,5.90
2021,04,17,05,49,5.80
2021,04,17,05,50,5.80
2021,04,17,05,51,5.80
2021,04,17,05,52,5.80
2021,04,17,05,53,5.80
2021,04,17,05,54,5.80
2021,04,17,05,55,5.80
2021,04,17,05,56,5.80
2021,04,17,05,57,5.80
2021,04,17,05,58,5.90
2021,04,17,05,59,5.90
2021,04,17,06,00,5.90
2021,04,17,06,01,5.90
2021,04,17,06,02,5.90
2021,04,17,06,03,5.90
2021,04,17,06,04,5.90
2021,04,17,06,05,5.90
2021,04,17,06,06,5.90
2021,04,17,06,07,5.80
2021,04,17,06,08,5.80
2021,04,17,06,09,5.80
2021,04,17,06,10,5.80
2021,04,17,06,11,5.80
2021,04,17,06,12,5.80
2021,04,17,06,13,5.80
2021,04,17,06,14,5.80
2021,04,17,06,15,5.80
2021,04,17,06,16,5.80
2021,04,17,06,17,5.70
2021,04,17,06,18,5.70
2021,04,17,06,19,5.70
2021,04,17,06,20,5.70
2021,04,17,06,21,5.70
2021,04,17,06,22,5.70
2021,04,17,06,23,5.70
2021,04,17,06,24,5.70
2021,04,17,06,25,5.60
2021,04,17,06,26,5.60
2021,04,17,06,27,5.60
2021,04,17,06,28,5.60
2021,04,17,06,29,5.60
2021,04,17,06,30,5.50
2021,04,17,06,31,5.50
2021,04,17,06,32,5.50
2021,04,17,06,33,5.50
2021,04,17,06,34,5.50
2021,04,17,06,35,5.40
2021,04,17,06,36,5.50
2021,04,17,06,37,5.40
2021,04,17,06,38,5.40
2021,04,17,06,39,5.50
2021,04,17,06,40,5.40
2021,04,17,06,41,5.40
2021,04,17,06,42,5.40
2021,04,17,06,43,5.40
2021,04,17,06,44,5.40
2021,04,17,06,45,5.40
2021,04,17,06,46,5.50
2021,04,17,06,47,5.50
2021,04,17,06,48,5.50
2021,04,17,06,49,5.50
2021,04,17,06,50,5.50
2021,04,17,06,51,5.50
2021,04,17,06,52,5.50
2021,04,17,06,53,5.50
2021,04,17,06,54,5.60
2021,04,17,06,55,5.60
2021,04,17,06,56,5.60
2021,04,17,06,57,5.60
2021,04,17,06,58,5.60
2021,04,17,06,59,5.60
2021,04,17,07,00,5.60
2021,04,17,07,01,5.60
2021,04,17,07,02,5.60
2021,04,17,07,03,5.60
2021,04,17,07,04,5.60
2021,04,17,07,05,5.60
2021,04,17,07,06,5.60
2021,04,17,07,07,5.70
2021,04,17,07,08,5.70
2021,04,17,07,09,5.70
2021,04,17,07,10,5.70
2021,04,17,07,11,5.70
2021,04,17,07,12,5.80
2021,04,17,07,13,5.80
2021,04,17,07,14,5.80
2021,04,17,07,15,5.80
2021,04,17,07,16,5.90
2021,04,17,07,17,5.90
2021,04,17,07,18,6.00
2021,04,17,07,19,6.00
2021,04,17,07,20,6.10
2021,04,17,07,21,6.10
2021,04,17,07,22,6.10
2021,04,17,07,23,6.10
2021,04,17,07,24,6.20
2021,04,17,07,25,6.20
2021,04,17,07,26,6.20
2021,04,17,07,27,6.20
2021,04,17,07,28,6.30
2021,04,17,07,29,6.30
2021,04,17,07,30,6.40
2021,04,17,07,31,6.40
2021,04,17,07,32,6.50
2021,04,17,07,33,6.50
2021,04,17,07,34,6.60
2021,04,17,07,35,6.60
2021,04,17,07,36,6.60
2021,04,17,07,37,6.70
2021,04,17,07,38,6.80
2021,04,17,07,39,6.80
2021,04,17,07,40,6.80
2021,04,17,07,41,6.90
2021,04,17,07,42,7.00
2021,04,17,07,43,7.00
2021,04,17,07,44,7.10
2021,04,17,07,45,7.20
2021,04,17,07,46,7.20
2021,04,17,07,47,7.30
2021,04,17,07,48,7.30
2021,04,17,07,49,7.40
2021,04,17,07,50,7.40
2021,04,17,07,51,7.50
2021,04,17,07,52,7.50
2021,04,17,07,53,7.60
2021,04,17,07,54,7.70
2021,04,17,07,55,7.70
2021,04,17,07,56,7.80
2021,04,17,07,57,7.80
2021,04,17,07,58,7.80
2021,04,17,07,59,7.90
2021,04,17,08,00,8.00
2021,04,17,08,01,8.00
2021,04,17,08,02,8.10
2021,04,17,08,03,8.20
2021,04,17,08,04,8.20
2021,04,17,08,05,8.30
2021,04,17,08,06,8.40
2021,04,17,08,07,8.40
2021,04,17,08,08,8.50
2021,04,17,08,09,8.60
2021,04,17,08,10,8.70
2021,04,17,08,11,8.70
2021,04,17,08,12,8.80
2021,04,17,08,13,8.80
2021,04,17,08,14,8.90
2021,04,17,08,15,9.00
2021,04,17,08,16,9.00
2021,04,17,08,17,9.10
2021,04,17,08,18,9.20
2021,04,17,08,19,9.20
2021,04,17,08,20,9.30
2021,04,17,08,21,9.40
2021,04,17,08,22,9.40
2021,04,17,08,23,9.50
2021,04,17,08,24,9.60
2021,04,17,08,25,9.60
2021,04,17,08,26,9.70
2021,04,17,08,27,9.80
2021,04,17,08,28,9.80
2021,04,17,08,29,9.90
2021,04,17,08,30,10.00
2021,04,17,08,31,10.00
2021,04,17,08,32,10.10
2021,04,17,08,33,10.20
2021,04,17,08,34,10.30
2021,04,17,08,35,10.30
2021,04,17,08,36,10.40
2021,04,17,08,37,10.50
2021,04,17,08,38,10.60
2021,04,17,08,39,10.60
2021,04,17,08,40,10.70
2021,04,17,08,41,10.80
2021,04,17,08,42,10.90
2021,04,17,08,43,11.00
2021,04,17,08,44,11.00
2021,04,17,08,45,11.10
2021,04,17,08,46,11.20
2021,04,17,08,47,11.30
2021,04,17,08,48,11.40
2021,04,17,08,49,11.50
2021,04,17,08,50,11.60
2021,04,17,08,51,11.70
2021,04,17,08,52,11.80
2021,04,17,08,53,11.90
2021,04,17,08,54,12.00
2021,04,17,08,55,12.10
2021,04,17,08,56,12.20
2021,04,17,08,57,12.30
2021,04,17,08,58,12.40
2021,04,17,08,59,12.50
2021,04,17,09,00,12.60
2021,04,17,09,01,12.70
2021,04,17,09,02,12.80
2021,04,17,09,03,12.90
2021,04,17,09,04,13.00
2021,04,17,09,05,13.10
2021,04,17,09,06,13.30
2021,04,17,09,07,13.40
2021,04,17,09,08,13.50
2021,04,17,09,09,13.60
2021,04,17,09,10,13.60
2021,04,17,09,11,13.70
2021,04,17,09,12,13.80
2021,04,17,09,13,13.90
2021,04,17,09,14,13.90
2021,04,17,09,15,14.00
2021,04,17,09,16,14.10
2021,04,17,09,17,14.10
2021,04,17,09,18,14.10
2021,04,17,09,19,14.20
2021,04,17,09,20,14.20
2021,04,17,09,21,14.20
2021,04,17,09,22,14.20
2021,04,17,09,23,14.20
2021,04,17,09,24,14.20
2021,04,17,09,25,14.30
2021,04,17,09,26,14.30
2021,04,17,09,27,14.30
2021,04,17,09,28,14.40
2021,04,17,09,29,14.40
2021,04,17,09,30,14.40
2021,04,17,09,31,14.50
2021,04,17,09,32,14.50
2021,04,17,09,33,14.60
2021,04,17,09,34,14.60
2021,04,17,09,35,14.70
2021,04,17,09,36,14.70
2021,04,17,09,37,14.70
2021,04,17,09,38,14.70
2021,04,17,09,39,14.80
2021,04,17,09,40,14.80
2021,04,17,09,41,14.80
2021,04,17,09,42,14.80
2021,04,17,09,43,14.90
2021,04,17,09,44,14.90
2021,04,17,09,45,15.00
2021,04,17,09,46,15.00
2021,04,17,09,47,15.10
2021,04,17,09,48,15.10
2021,04,17,09,49,15.20
2021,04,17,09,50,15.20
2021,04,17,09,51,15.30
2021,04,17,09,52,15.30
2021,04,17,09,53,15.30
2021,04,17,09,54,15.40
2021,04,17,09,55,15.40
2021,04,17,09,56,15.50
2021,04,17,09,57,15.50
2021,04,17,09,58,15.60
2021,04,17,09,59,15.60
2021,04,17,10,00,15.60
2021,04,17,10,01,15.70
2021,04,17,10,02,15.70
2021,04,17,10,03,15.70
2021,04,17,10,04,15.70
2021,04,17,10,05,15.80
2021,04,17,10,06,15.80
2021,04,17,10,07,15.80
2021,04,17,10,08,15.90
2021,04,17,10,09,15.90
2021,04,17,10,10,15.90
2021,04,17,10,11,15.90
2021,04,17,10,12,15.90
2021,04,17,10,13,15.90
2021,04,17,10,14,15.90
2021,04,17,10,15,16.00
2021,04,17,10,16,16.00
2021,04,17,10,17,16.00
2021,04,17,10,18,16.10
2021,04,17,10,19,16.10
2021,04,17,10,20,16.10
2021,04,17,10,21,16.20
2021,04,17,10,22,16.20
2021,04,17,10,23,16.30
2021,04,17,10,24,16.30
2021,04,17,10,25,16.30
2021,04,17,10,26,16.30
2021,04,17,10,27,16.30
2021,04,17,10,28,16.40
2021,04,17,10,29,16.40
2021,04,17,10,30,16.40
2021,04,17,10,31,16.40
2021,04,17,10,32,16.50
2021,04,17,10,33,16.50
2021,04,17,10,34,16.60
2021,04,17,10,35,16.60
2021,04,17,10,36,16.60
2021,04,17,10,37,16.70
2021,04,17,10,38,16.80
2021,04,17,10,39,16.80
2021,04,17,10,40,16.90
2021,04,17,10,41,17.00
2021,04,17,10,42,17.10
2021,04,17,10,43,17.20
2021,04,17,10,44,17.30
2021,04,17,10,45,17.30
2021,04,17,10,46,17.30
2021,04,17,10,47,17.40
2021,04,17,10,48,17.40
2021,04,17,10,49,17.40
2021,04,17,10,50,17.50
2021,04,17,10,51,17.50
2021,04,17,10,52,17.60
2021,04,17,10,53,17.60
2021,04,17,10,54,17.70
2021,04,17,10,55,17.80
2021,04,17,10,56,17.80
2021,04,17,10,57,17.80
2021,04,17,10,58,17.80
2021,04,17,10,59,17.80
2021,04,17,11,00,17.80
2021,04,17,11,01,17.80
2021,04,17,11,02,17.90
2021,04,17,11,03,17.90
2021,04,17,11,04,17.90
2021,04,17,11,05,17.90
2021,04,17,11,06,17.90
2021,04,17,11,07,18.00
2021,04,17,11,08,18.00
2021,04,17,11,09,18.00
2021,04,17,11,10,18.00
2021,04,17,11,11,18.00
2021,04,17,11,12,18.10
2021,04,17,11,13,18.20
2021,04,17,11,14,18.30
2021,04,17,11,15,18.40
2021,04,17,11,16,18.50
2021,04,17,11,17,18.60
2021,04,17,11,18,18.70
2021,04,17,11,19,18.80
2021,04,17,11,20,18.90
2021,04,17,11,21,19.00
2021,04,17,11,22,19.10
2021,04,17,11,23,19.10
2021,04,17,11,24,19.10
2021,04,17,11,25,19.00
2021,04,17,11,26,18.90
2021,04,17,11,27,18.90
2021,04,17,11,28,18.90
2021,04,17,11,29,18.90
2021,04,17,11,30,18.90
2021,04,17,11,31,18.90
2021,04,17,11,32,18.90
2021,04,17,11,33,18.90
2021,04,17,11,34,18.90
2021,04,17,11,35,18.90
2021,04,17,11,36,18.90
2021,04,17,11,37,18.80
2021,04,17,11,38,18.80
2021,04,17,11,39,18.80
2021,04,17,11,40,18.80
2021,04,17,11,41,18.80
2021,04,17,11,42,18.80
2021,04,17,11,43,18.80
2021,04,17,11,44,18.80
2021,04,17,11,45,18.90
2021,04,17,11,46,18.90
2021,04,17,11,47,18.90
2021,04,17,11,48,18.90
2021,04,17,11,49,18.90
2021,04,17,11,50,18.80
2021,04,17,11,51,18.80
2021,04,17,11,52,18.80
2021,04,17,11,53,18.80
2021,04,17,11,54,18.80
2021,04,17,11,55,18.80
2021,04,17,11,56,18.80
2021,04,17,11,57,18.80
2021,04,17,11,58,18.80
2021,04,17,11,59,18.90
2021,04,17,12,00,18.90
2021,04,17,12,01,19.00
2021,04,17,12,02,19.00
2021,04,17,12,03,19.10
2021,04,17,12,04,19.20
2021,04,17,12,05,19.20
2021,04,17,12,06,19.30
2021,04,17,12,07,19.40
2021,04,17,12,08,19.50
2021,04,17,12,09,19.50
2021,04,17,12,10,19.60
2021,04,17,12,11,19.60
2021,04,17,12,12,19.60
2021,04,17,12,13,19.70
2021,04,17,12,14,19.70
2021,04,17,12,15,19.70
2021,04,17,12,16,19.80
2021,04,17,12,17,19.80
2021,04,17,12,18,19.80
2021,04,17,12,19,19.80
2021,04,17,12,20,19.80
2021,04,17,12,21,19.80
2021,04,17,12,22,19.80
2021,04,17,12,23,19.70
2021,04,17,12,24,19.70
2021,04,17,12,25,19.70
2021,04,17,12,26,19.60
2021,04,17,12,27,19.60
2021,04,17,12,28,19.50
2021,04,17,12,29,19.50
2021,04,17,12,30,19.40
2021,04,17,12,31,19.40
2021,04,17,12,32,19.40
2021,04,17,12,33,19.40
2021,04,17,12,34,19.40
2021,04,17,12,35,19.40
2021,04,17,12,36,19.40
2021,04,17,12,37,19.30
2021,04,17,12,38,19.30
2021,04,17,12,39,19.30
2021,04,17,12,40,19.30
2021,04,17,12,41,19.40
2021,04,17,12,42,19.40
2021,04,17,12,43,19.40
2021,04,17,12,44,19.40
2021,04,17,12,45,19.40
2021,04,17,12,46,19.40
2021,04,17,12,47,19.40
2021,04,17,12,48,19.40
2021,04,17,12,49,19.40
2021,04,17,12,50,19.40
2021,04,17,12,51,19.40
2021,04,17,12,52,19.40
2021,04,17,12,53,19.30
2021,04,17,12,54,19.30
2021,04,17,12,55,19.30
2021,04,17,12,56,19.30
2021,04,17,12,57,19.30
2021,04,17,12,58,19.30
2021,04,17,12,59,19.30
2021,04,17,13,00,19.30
2021,04,17,13,01,19.30
2021,04,17,13,02,19.30
2021,04,17,13,03,19.30
2021,04,17,13,04,19.30
2021,04,17,13,05,19.30
2021,04,17,13,06,19.30
2021,04,17,13,07,19.20
2021,04,17,13,08,19.20
2021,04,17,13,09,19.10
2021,04,17,13,10,19.00
2021,04,17,13,11,19.00
2021,04,17,13,12,18.90
2021,04,17,13,13,18.80
2021,04,17,13,14,18.80
2021,04,17,13,15,18.80
2021,04,17,13,16,18.90
2021,04,17,13,17,18.80
2021,04,17,13,18,18.80
2021,04,17,13,19,18.80
2021,04,17,13,20,18.80
2021,04,17,13,21,18.90
2021,04,17,13,22,18.90
2021,04,17,13,23,18.80
2021,04,17,13,24,18.80
2021,04,17,13,25,18.80
2021,04,17,13,26,18.80
2021,04,17,13,27,18.70
2021,04,17,13,28,18.70
2021,04,17,13,29,18.70
2021,04,17,13,30,18.70
2021,04,17,13,31,18.80
2021,04,17,13,32,18.80
2021,04,17,13,33,18.70
2021,04,17,13,34,18.70
2021,04,17,13,35,18.70
2021,04,17,13,36,18.80
2021,04,17,13,37,18.70
2021,04,17,13,38,18.70
2021,04,17,13,39,18.70
2021,04,17,13,40,18.70
2021,04,17,13,41,18.70
2021,04,17,13,42,18.70
2021,04,17,13,43,18.70
2021,04,17,13,44,18.70
2021,04,17,13,45,18.70
2021,04,17,13,46,18.80
2021,04,17,13,47,18.80
2021,04,17,13,48,18.80
2021,04,17,13,49,18.80
2021,04,17,13,50,18.80
2021,04,17,13,51,18.80
2021,04,17,13,52,18.90
2021,04,17,13,53,19.00
2021,04,17,13,54,19.00
2021,04,17,13,55,19.10
2021,04,17,13,56,19.10
2021,04,17,13,57,19.00
2021,04,17,13,58,19.00
2021,04,17,13,59,18.90
2021,04,17,14,00,19.00
2021,04,17,14,01,19.00
2021,04,17,14,02,19.10
2021,04,17,14,03,19.20
2021,04,17,14,04,19.20
2021,04,17,14,05,19.20
2021,04,17,14,06,19.20
2021,04,17,14,07,19.10
2021,04,17,14,08,19.10
2021,04,17,14,09,19.10
2021,04,17,14,10,19.10
2021,04,17,14,11,19.10
2021,04,17,14,12,19.20
2021,04,17,14,13,19.30
2021,04,17,14,14,19.30
2021,04,17,14,15,19.30
2021,04,17,14,16,19.40
2021,04,17,14,17,19.40
2021,04,17,14,18,19.50
2021,04,17,14,19,19.60
2021,04,17,14,20,19.70
2021,04,17,14,21,19.80
2021,04,17,14,22,19.90
2021,04,17,14,23,19.90
2021,04,17,14,24,20.00
2021,04,17,14,25,20.00
2021,04,17,14,26,20.10
2021,04,17,14,27,20.10
2021,04,17,14,28,20.10
2021,04,17,14,29,20.10
2021,04,17,14,30,20.20
2021,04,17,14,31,20.20
2021,04,17,14,32,20.30
2021,04,17,14,33,20.30
2021,04,17,14,34,20.30
2021,04,17,14,35,20.30
2021,04,17,14,36,20.30
2021,04,17,14,37,20.30
2021,04,17,14,38,20.40
2021,04,17,14,39,20.40
2021,04,17,14,40,20.50
2021,04,17,14,41,20.50
2021,04,17,14,42,20.50
2021,04,17,14,43,20.50
2021,04,17,14,44,20.50
2021,04,17,14,45,20.50
2021,04,17,14,46,20.50
2021,04,17,14,47,20.50
2021,04,17,14,48,20.60
2021,04,17,14,49,20.60
2021,04,17,14,50,20.60
2021,04,17,14,51,20.60
2021,04,17,14,52,20.60
2021,04,17,14,53,20.50
2021,04,17,14,54,20.40
2021,04,17,14,55,20.40
2021,04,17,14,56,20.40
2021,04,17,14,57,20.40
2021,04,17,14,58,20.40
2021,04,17,14,59,20.50
2021,04,17,15,00,20.60
2021,04,17,15,01,20.60
2021,04,17,15,02,20.70
2021,04,17,15,03,20.70
2021,04,17,15,04,20.70
2021,04,17,15,05,20.80
2021,04,17,15,06,20.80
2021,04,17,15,07,20.80
2021,04,17,15,08,20.80
2021,04,17,15,09,20.90
2021,04,17,15,10,20.90
2021,04,17,15,11,20.90
2021,04,17,15,12,20.90
2021,04,17,15,13,20.90
2021,04,17,15,14,20.90
2021,04,17,15,15,20.90
2021,04,17,15,16,20.90
2021,04,17,15,17,20.90
2021,04,17,15,18,20.80
2021,04,17,15,19,20.80
2021,04,17,15,20,20.80
2021,04,17,15,21,20.80
2021,04,17,15,22,20.80
2021,04,17,15,23,20.80
2021,04,17,15,24,20.80
2021,04,17,15,25,20.90
2021,04,17,15,26,20.90
2021,04,17,15,27,21.00
2021,04,17,15,28,21.00
2021,04,17,15,29,21.10
2021,04,17,15,30,21.10
2021,04,17,15,31,21.20
2021,04,17,15,32,21.20
2021,04,17,15,33,21.20
2021,04,17,15,34,21.30
2021,04,17,15,35,21.30
2021,04,17,15,36,21.40
2021,04,17,15,37,21.40
2021,04,17,15,38,21.50
2021,04,17,15,39,21.60
2021,04,17,15,40,21.60
2021,04,17,15,41,21.60
2021,04,17,15,42,21.70
2021,04,17,15,43,21.70
2021,04,17,15,44,21.70
2021,04,17,15,45,21.60
2021,04,17,15,46,21.60
2021,04,17,15,47,21.60
2021,04,17,15,48,21.50
2021,04,17,15,49,21.50
2021,04,17,15,50,21.40
2021,04,17,15,51,21.40
2021,04,17,15,52,21.40
2021,04,17,15,53,21.40
2021,04,17,15,54,21.40
2021,04,17,15,55,21.40
2021,04,17,15,56,21.40
2021,04,17,15,57,21.40
2021,04,17,15,58,21.40
2021,04,17,15,59,21.40
2021,04,17,16,00,21.40
2021,04,17,16,01,21.40
2021,04,17,16,02,21.40
2021,04,17,16,03,21.40
2021,04,17,16,04,21.40
2021,04,17,16,05,21.40
2021,04,17,16,06,21.40
2021,04,17,16,07,21.40
2021,04,17,16,08,21.40
2021,04,17,16,09,21.30
2021,04,17,16,10,21.30
2021,04,17,16,11,21.30
2021,04,17,16,12,21.30
2021,04,17,16,13,21.30
2021,04,17,16,14,21.30
2021,04,17,16,15,21.30
2021,04,17,16,16,21.40
2021,04,17,16,17,21.40
2021,04,17,16,18,21.50
2021,04,17,16,19,21.50
2021,04,17,16,20,21.50
2021,04,17,16,21,21.50
2021,04,17,16,22,21.50
2021,04,17,16,23,21.50
2021,04,17,16,24,21.50
2021,04,17,16,25,21.60
2021,04,17,16,26,21.60
2021,04,17,16,27,21.60
2021,04,17,16,28,21.50
2021,04,17,16,29,21.40
2021,04,17,16,30,21.30
2021,04,17,16,31,21.30
2021,04,17,16,32,21.20
2021,04,17,16,33,21.20
2021,04,17,16,34,21.20
2021,04,17,16,35,21.10
2021,04,17,16,36,21.10
2021,04,17,16,37,21.10
2021,04,17,16,38,21.10
2021,04,17,16,39,21.00
2021,04,17,16,40,21.00
2021,04,17,16,41,20.90
2021,04,17,16,42,20.90
2021,04,17,16,43,20.80
2021,04,17,16,44,20.90
2021,04,17,16,45,20.90
2021,04,17,16,46,20.90
2021,04,17,16,47,20.90
2021,04,17,16,48,21.00
2021,04,17,16,49,21.00
2021,04,17,16,50,21.00
2021,04,17,16,51,21.10
2021,04,17,16,52,21.10
2021,04,17,16,53,21.10
2021,04,17,16,54,21.10
2021,04,17,16,55,21.10
2021,04,17,16,56,21.00
2021,04,17,16,57,20.90
2021,04,17,16,58,20.90
2021,04,17,16,59,20.90
2021,04,17,17,00,20.90
2021,04,17,17,01,20.90
2021,04,17,17,02,20.90
2021,04,17,17,03,21.00
2021,04,17,17,04,21.00
2021,04,17,17,05,20.90
2021,04,17,17,06,20.90
2021,04,17,17,07,20.90
2021,04,17,17,08,21.00
2021,04,17,17,09,21.00
2021,04,17,17,10,21.10
2021,04,17,17,11,21.10
2021,04,17,17,12,21.10
2021,04,17,17,13,21.20
2021,04,17,17,14,21.20
2021,04,17,17,15,21.20
2021,04,17,17,16,21.30
2021,04,17,17,17,21.40
2021,04,17,17,18,21.50
2021,04,17,17,19,21.60
2021,04,17,17,20,21.70
2021,04,17,17,21,21.80
2021,04,17,17,22,21.90
2021,04,17,17,23,22.00
2021,04,17,17,24,22.10
2021,04,17,17,25,22.20
2021,04,17,17,26,22.30
2021,04,17,17,27,22.30
2021,04,17,17,28,22.30
2021,04,17,17,29,22.30
2021,04,17,17,30,22.30
2021,04,17,17,31,22.30
2021,04,17,17,32,22.20
2021,04,17,17,33,22.20
2021,04,17,17,34,22.20
2021,04,17,17,35,22.30
2021,04,17,17,36,22.30
2021,04,17,17,37,22.30
2021,04,17,17,38,22.20
2021,04,17,17,39,22.20